Location: �perlecques
(50.8057°N, 2.1521°E)
Time: 12:51:15
(UTC+00:00)

Vanguard 1 Rocket - Pass Details

Date: 01 August 2021
Orbit: 650 x 4226 km, 34.3° (Epoch: 23 September)

Event Time Altitude Azimuth Distance (km) Brightness Sun altitude
Rises 14:12:02 0° 264° (W) 6,032 12.1 47.6°
Reaches altitude 10° 14:17:56 10° 251° (WSW) 4,294 11.8 46.9°
Maximum altitude 14:24:46 20° 210° (SSW) 2,739 11.0 46.0°
Drops below altitude 10° 14:29:31 10° 166° (SSE) 2,830 10.2 45.4°
Sets 14:32:24 0° 148° (SSE) 3,461 10.4 45.0°
